TimeMDT,TemperatureF,Dew PointF,Humidity,Sea Level PressureIn,VisibilityMPH,Wind Direction,Wind SpeedMPH,Gust SpeedMPH,PrecipitationIn,Events,Conditions,WindDirDegrees,DateUTC
12:15 AM,55.4,23.0,29,29.72,10.0,WNW,19.6,34.5,N/A,,Clear,290,2012-10-17 06:15:00
12:35 AM,55.4,24.8,31,29.74,10.0,WNW,16.1,20.7,N/A,,Clear,290,2012-10-17 06:35:00
12:55 AM,53.6,26.6,35,29.73,10.0,West,17.3,-,N/A,,Clear,280,2012-10-17 06:55:00
1:15 AM,53.6,24.8,33,29.74,10.0,West,23.0,32.2,N/A,,Clear,280,2012-10-17 07:15:00
1:35 AM,53.6,24.8,33,29.74,10.0,West,19.6,27.6,N/A,,Clear,280,2012-10-17 07:35:00
1:55 AM,53.6,21.2,28,29.75,10.0,WNW,19.6,26.5,N/A,,Clear,290,2012-10-17 07:55:00
2:15 AM,53.6,19.4,26,29.75,10.0,West,15.0,24.2,N/A,,Clear,280,2012-10-17 08:15:00
2:35 AM,51.8,17.6,26,29.76,10.0,West,18.4,29.9,N/A,,Clear,280,2012-10-17 08:35:00
2:55 AM,51.8,15.8,24,29.76,10.0,West,19.6,25.3,N/A,,Clear,280,2012-10-17 08:55:00
3:15 AM,50.0,15.8,26,29.76,10.0,WNW,13.8,17.3,N/A,,Clear,290,2012-10-17 09:15:00
3:35 AM,51.8,15.8,24,29.76,10.0,WNW,18.4,27.6,N/A,,Clear,290,2012-10-17 09:35:00
3:55 AM,51.8,15.8,24,29.76,10.0,West,13.8,20.7,N/A,,Clear,280,2012-10-17 09:55:00
4:15 AM,51.8,15.8,24,29.76,10.0,West,19.6,31.1,N/A,,Clear,280,2012-10-17 10:15:00
4:35 AM,50.0,17.6,28,29.76,10.0,WNW,26.5,36.8,N/A,,Clear,300,2012-10-17 10:35:00
4:55 AM,50.0,17.6,28,29.78,10.0,West,18.4,28.8,N/A,,Clear,280,2012-10-17 10:55:00
5:15 AM,48.2,17.6,30,29.78,10.0,WNW,15.0,24.2,N/A,,Clear,290,2012-10-17 11:15:00
5:35 AM,48.2,15.8,27,29.80,10.0,NNW,11.5,25.3,N/A,,Clear,330,2012-10-17 11:35:00
5:55 AM,48.2,15.8,27,29.83,10.0,NW,18.4,-,N/A,,Clear,320,2012-10-17 11:55:00
6:15 AM,46.4,15.8,29,29.84,10.0,NW,11.5,26.5,N/A,,Clear,320,2012-10-17 12:15:00
6:35 AM,46.4,15.8,29,29.85,10.0,NNW,9.2,17.3,N/A,,Clear,330,2012-10-17 12:35:00
6:55 AM,46.4,14.0,27,29.87,10.0,NW,15.0,28.8,N/A,,Clear,310,2012-10-17 12:55:00
7:15 AM,46.4,14.0,27,29.89,10.0,NW,23.0,31.1,N/A,,Clear,310,2012-10-17 13:15:00
7:35 AM,46.4,12.2,25,29.89,10.0,WNW,23.0,36.8,N/A,,Clear,300,2012-10-17 13:35:00
7:55 AM,46.4,12.2,25,29.90,10.0,NW,29.9,40.3,N/A,,Clear,310,2012-10-17 13:55:00
8:15 AM,46.4,12.2,25,29.91,10.0,WNW,27.6,38.0,N/A,,Clear,290,2012-10-17 14:15:00
8:35 AM,46.4,14.0,27,29.93,10.0,WNW,21.9,33.4,N/A,,Clear,300,2012-10-17 14:35:00
8:55 AM,46.4,14.0,27,29.93,10.0,WNW,18.4,27.6,N/A,,Clear,300,2012-10-17 14:55:00
9:35 AM,48.2,14.0,25,29.94,10.0,WNW,25.3,29.9,N/A,,Clear,290,2012-10-17 15:35:00
9:55 AM,48.2,10.4,22,29.94,10.0,NW,31.1,40.3,N/A,,Clear,310,2012-10-17 15:55:00
10:15 AM,50.0,10.4,20,29.94,10.0,NW,19.6,32.2,N/A,,Clear,320,2012-10-17 16:15:00
10:55 AM,51.8,12.2,21,29.92,10.0,West,20.7,27.6,N/A,,Clear,270,2012-10-17 16:55:00
11:15 AM,51.8,12.2,21,29.92,10.0,WNW,17.3,32.2,N/A,,Clear,290,2012-10-17 17:15:00
11:35 AM,51.8,12.2,21,29.91,10.0,WNW,23.0,32.2,N/A,,Clear,300,2012-10-17 17:35:00
11:55 AM,53.6,12.2,19,29.92,10.0,WNW,26.5,34.5,N/A,,Clear,290,2012-10-17 17:55:00
12:15 PM,53.6,12.2,19,29.92,10.0,WNW,26.5,35.7,N/A,,Clear,290,2012-10-17 18:15:00
12:35 PM,53.6,12.2,19,29.91,10.0,WNW,24.2,36.8,N/A,,Clear,300,2012-10-17 18:35:00
12:55 PM,55.4,12.2,18,29.91,10.0,WNW,24.2,35.7,N/A,,Clear,290,2012-10-17 18:55:00
1:15 PM,55.4,12.2,18,29.90,10.0,NW,27.6,33.4,N/A,,Clear,310,2012-10-17 19:15:00
1:35 PM,55.4,12.2,18,29.90,10.0,NW,28.8,38.0,N/A,,Clear,310,2012-10-17 19:35:00
1:55 PM,55.4,12.2,18,29.89,10.0,NW,29.9,38.0,N/A,,Clear,310,2012-10-17 19:55:00
2:15 PM,55.4,12.2,18,29.89,10.0,WNW,26.5,35.7,N/A,,Clear,300,2012-10-17 20:15:00
2:35 PM,55.4,12.2,18,29.88,10.0,WNW,24.2,34.5,N/A,,Clear,300,2012-10-17 20:35:00
2:55 PM,55.4,12.2,18,29.88,10.0,WNW,26.5,34.5,N/A,,Clear,290,2012-10-17 20:55:00
3:15 PM,55.4,12.2,18,29.88,10.0,West,24.2,40.3,N/A,,Clear,280,2012-10-17 21:15:00
3:35 PM,57.2,12.2,17,29.87,10.0,WNW,20.7,28.8,N/A,,Clear,300,2012-10-17 21:35:00
3:55 PM,55.4,12.2,18,29.87,10.0,WNW,25.3,33.4,N/A,,Clear,290,2012-10-17 21:55:00
4:15 PM,57.2,12.2,17,29.87,10.0,WNW,16.1,25.3,N/A,,Clear,300,2012-10-17 22:15:00
4:35 PM,57.2,12.2,17,29.86,10.0,NW,16.1,24.2,N/A,,Clear,310,2012-10-17 22:35:00
4:55 PM,57.2,12.2,17,29.86,10.0,West,11.5,-,N/A,,Clear,280,2012-10-17 22:55:00
5:15 PM,55.4,10.4,17,29.87,10.0,West,11.5,-,N/A,,Clear,270,2012-10-17 23:15:00
5:35 PM,55.4,10.4,17,29.87,10.0,West,9.2,-,N/A,,Clear,260,2012-10-17 23:35:00
5:55 PM,55.4,10.4,17,29.88,10.0,WNW,12.7,24.2,N/A,,Clear,300,2012-10-17 23:55:00
6:15 PM,53.6,8.6,16,29.88,10.0,NW,16.1,-,N/A,,Clear,320,2012-10-18 00:15:00
6:35 PM,51.8,6.8,16,29.88,10.0,NNW,15.0,-,N/A,,Clear,330,2012-10-18 00:35:00
6:55 PM,51.8,6.8,16,29.89,10.0,NNW,12.7,-,N/A,,Clear,330,2012-10-18 00:55:00
7:15 PM,48.2,8.6,20,29.89,10.0,NNW,10.4,-,N/A,,Clear,340,2012-10-18 01:15:00
7:35 PM,48.2,8.6,20,29.90,10.0,NNW,10.4,-,N/A,,Clear,340,2012-10-18 01:35:00
7:55 PM,46.4,8.6,22,29.91,10.0,NNW,5.8,-,N/A,,Clear,330,2012-10-18 01:55:00
8:15 PM,46.4,10.4,23,29.92,10.0,North,9.2,-,N/A,,Clear,360,2012-10-18 02:15:00
8:35 PM,48.2,10.4,22,29.92,10.0,North,3.5,-,N/A,,Clear,350,2012-10-18 02:35:00
8:55 PM,46.4,10.4,23,29.93,10.0,NNE,9.2,-,N/A,,Clear,20,2012-10-18 02:55:00
9:15 PM,46.4,12.2,25,29.95,10.0,North,10.4,-,N/A,,Clear,350,2012-10-18 03:15:00
9:35 PM,46.4,12.2,25,29.95,10.0,North,11.5,19.6,N/A,,Clear,10,2012-10-18 03:35:00
9:55 PM,46.4,12.2,25,29.96,10.0,North,16.1,-,N/A,,Clear,360,2012-10-18 03:55:00
10:15 PM,46.4,12.2,25,29.97,10.0,North,15.0,-,N/A,,Clear,350,2012-10-18 04:15:00
10:35 PM,48.2,12.2,24,29.98,10.0,North,16.1,-,N/A,,Clear,360,2012-10-18 04:35:00
10:55 PM,48.2,10.4,22,29.99,10.0,North,18.4,-,N/A,,Clear,350,2012-10-18 04:55:00
11:15 PM,48.2,12.2,24,29.99,10.0,North,20.7,-,N/A,,Clear,360,2012-10-18 05:15:00
11:35 PM,48.2,12.2,24,30.00,10.0,North,20.7,-,N/A,,Clear,360,2012-10-18 05:35:00
11:55 PM,46.4,12.2,25,30.01,10.0,North,17.3,-,N/A,,Clear,350,2012-10-18 05:55:00